Find Starlink 37626

NORAD ID: 100419 Int'l Des: 2026-192 Owner: SPXS Country: US Constellation: starlink operational

当前视图

正在加载3D地球...

About Starlink 37626

Starlink 37626 (NORAD 100419) is a starlink constellation satellite launched Aug 21, 2026 by SPXS of US. with a mass of 575.00 kg.

即将过境

Passes for default location (London). Set your location on the main map for personalized predictions.

高度历史

Loading altitude history...

两行轨道根数

1 A0419U 26192R 26254.47405689 .00230072 00000-0 11908-2 0 9991
2 A0419 53.1610 349.6835 0003387 212.3953 147.6862 15.79885354 4504
Epoch: Sep 11, 2026 • Age: 11 hours

当前状态

高度 330.7 km
远地点 / 近地点 N/A
速度 7.71 km/s
星下点 -9.53°S, 158.67°W
发射日期 Aug 21, 2026
运行时间 21 days
类型 internet

技术详情

分类 Payload
质量 575.00 kg
干质量 530.00 kg
总质量 575.00 kg
长度 0.30 m
直径 4.10 m
跨度 29.00 m
形状 Box + pan
制造商 SPXS
平台类型 Starlink V2MO
阶段状态 In Orbit
所有者/国家 SPXS/US

Most Searched